This is the latest recevied weather packets stored in our database for station/object KC4JIR. If no packets are shown the sender has not sent any weather packets the latest 10 day(s).
| Time | Temp. | Humidity | Pressure | Rain* | Wind** | Luminosity | Snow |
|---|---|---|---|---|---|---|---|
| 1777595441 | 21.11° C | 73% | 1008.6 hPa | 0 mm | - | 0 W/m² | - |
| 1777595138 | 21.67° C | 66% | 1008.8 hPa | 0 mm | - | 0 W/m² | - |
| 1777594834 | 21.67° C | 66% | 1008.7 hPa | 0 mm | - | 0 W/m² | - |
| 1777594530 | 21.67° C | 65% | 1008.4 hPa | 0 mm | - | 0 W/m² | - |
| 1777594227 | 22.22° C | 65% | 1008.5 hPa | 0 mm | - | 1 W/m² | - |
| 1777593922 | 22.22° C | 64% | 1008.4 hPa | 0 mm | - | 6 W/m² | - |
| 1777593619 | 22.22° C | 63% | 1008 hPa | 0 mm | - | 8 W/m² | - |
| 1777593315 | 22.22° C | 63% | 1008.4 hPa | 0 mm | - | 9 W/m² | - |
| 1777593009 | 22.22° C | 63% | 1008.1 hPa | 0 mm | - | 12 W/m² | - |
| 1777592704 | 22.78° C | 64% | 1008.1 hPa | 0 mm | - | 10 W/m² | - |
| 1777592400 | 22.78° C | 64% | 1008.2 hPa | 0 mm | - | 10 W/m² | - |
| 1777592094 | 22.78° C | 64% | 1008.1 hPa | 0 mm | - | 21 W/m² | - |
| 1777591792 | 22.78° C | 63% | 1008 hPa | 0 mm | - | 23 W/m² | - |
| 1777591482 | 22.78° C | 62% | 1008.1 hPa | 0 mm | - | 29 W/m² | - |
| 1777591178 | 22.78° C | 62% | 1007.8 hPa | 0 mm | - | 35 W/m² | - |
| 1777590872 | 22.78° C | 62% | 1007.8 hPa | 0 mm | - | 39 W/m² | - |
| 1777590570 | 23.33° C | 63% | 1007.5 hPa | 0 mm | - | 32 W/m² | - |
| 1777590266 | 23.33° C | 64% | 1007.5 hPa | 0 mm | - | 38 W/m² | - |
| 1777589964 | 23.33° C | 64% | 1007.7 hPa | 0 mm | - | 36 W/m² | - |
| 1777589660 | 23.89° C | 72% | 1007.8 hPa | 0 mm | - | 41 W/m² | - |
| 1777589357 | 23.89° C | 69% | 1007.7 hPa | 0 mm | - | 55 W/m² | - |
| 1777589054 | 23.89° C | 67% | 1007.5 hPa | 0 mm | - | 75 W/m² | - |
| 1777588750 | 23.89° C | 69% | 1007.4 hPa | 0 mm | - | 93 W/m² | - |
| 1777588446 | 23.89° C | 67% | 1007.4 hPa | 0 mm | - | 77 W/m² | - |
| 1777588141 | 23.89° C | 66% | 1007.6 hPa | 0 mm | - | 79 W/m² | - |
* Rain latest hour (hover to see other rain measurements)
** Current wind speed in m/s (hover to see current wind gust speed)